Location: Caltech
(34.1382°N, 118.1253°W)
Time: 11:50:39
(UTC-07:00)

ALOS - Visible Passes

Search period start: 05 July 2015 00:00
Search period end: 15 July 2015 00:00
Orbit: 685 x 688 km, 97.9° (Epoch: 05 July)

Date Brightness Start Highest point End Pass type
(mag) Time Alt. Az. Time Alt. Az. Time Alt. Az.
05 Jul 2.2 21:09:27 10° SSE 21:14:06 80° ENE 21:18:47 10° N visible
06 Jul 3.5 21:47:51 10° SSW 21:52:08 37° W 21:56:27 10° NNW visible
07 Jul 2.7 20:48:13 10° SE 20:52:39 45° ENE 20:57:07 10° N visible
07 Jul 4.8 22:27:50 10° SW 22:30:25 14° W 22:32:47 10° WNW visible
08 Jul 2.6 21:26:07 11° S 21:30:34 66° W 21:35:13 10° NNW visible
09 Jul 4.2 22:04:51 10° SSW 22:08:42 24° W 22:12:26 10° NW visible
10 Jul 2.3 21:04:26 10° SSE 21:09:04 71° ENE 21:13:43 10° N visible
11 Jul 3.3 21:42:48 11° S 21:47:04 42° W 21:51:29 10° NNW visible
12 Jul 2.8 20:43:17 10° SE 20:47:37 40° ENE 20:52:00 10° N visible
12 Jul 4.8 22:22:21 10° SW 22:25:19 16° W 22:28:04 10° NW visible
13 Jul 2.4 21:21:04 11° S 21:25:30 75° W 21:30:11 10° NNW visible
14 Jul 4.0 21:59:36 10° SSW 22:03:36 27° W 22:07:33 10° NW visible
